Location: Hillsboro
(38.3483°N, 97.1938°W)
Time: 13:25:31
(UTC-06:00)

Daily predictions for brighter satellites

Satellite Brightness Start Highest point End
(mag) Time Altitude Azimuth Time Altitude Azimuth Time Altitude Azimuth
NOAA 12 4.4 18:33:49 10° SE 18:38:51 45° ENE 18:43:54 10° N
Cosmos 1975 Rocket 3.9 18:37:13 10° NNW 18:41:26 56° W 18:45:39 10° S
GPS 2-04 Rocket1 4.4 18:38:56 10° SSW 18:42:20 24° SSE 18:45:50 10° ESE
SKYMED 2 3.8 18:40:54 10° N 18:45:15 77° WNW 18:49:34 10° SSW
Cosmos 44 4.1 18:42:50 10° NW 18:47:05 49° WSW 18:51:13 10° S
GEOS 3 Rocket 4.4 18:42:54 10° NE 18:47:35 32° ESE 18:52:16 10° S
METEOR-M 4.2 18:44:32 10° SSE 18:49:45 56° ENE 18:54:58 10° N
Cosmos 1536 4.2 18:47:25 10° SE 18:50:13 19° E 18:53:01 10° NE
H-2A R/B 4.4 18:48:35 10° E 18:50:34 14° ENE 18:52:35 10° NE
COSMOS 2428 4.0 18:46:59 10° N 18:51:04 20° NE 18:55:09 10° E
Cosmos 1633 3.0 18:51:03 10° SSE 18:54:30 40° E 18:57:59 10° NNE
Okean 1 3.3 18:52:10 10° N 18:56:15 74° E 19:00:17 10° SSE
Cosmos 1812 3.2 18:52:37 10° NNW 18:56:28 65° W 19:00:15 10° S
Cosmos 1536 Rocket 3.5 18:55:58 10° N 19:00:26 68° E 19:04:53 10° SSE
Cosmos 1818 4.2 19:00:11 10° SW 19:05:33 60° WNW 19:10:58 10° NNE
Cosmos 407 Rocket 4.3 19:01:13 10° SSW 19:06:19 54° WNW 19:11:33 10° N
Cosmos 2219 3.8 19:05:31 10° SSE 19:10:39 35° ESE 19:15:48 10° NE
Cosmos 2360 Rocket 2.2 19:05:06 10° NNW 19:10:42 58° ENE 19:16:15 10° SE
Cosmos 676 Rocket 4.3 19:05:46 10° SSW 19:10:55 72° WNW 19:16:09 10° NNE
Cosmos 2219 Rocket 3.7 19:08:32 10° NNE 19:11:58 16° NE 19:13:35 15° ENE
Meteor 1-11 Rocket 3.7 19:14:46 10° S 19:20:30 70° E 19:26:23 10° NNE
Cosmos 1461 4.4 19:18:09 10° NW 19:21:54 38° WSW 19:25:44 10° S
BREEZE-M DEB (TANK) 2.6 19:17:49 10° SW 19:22:34 55° SE 19:23:47 28° ENE
Cosmos 1602 3.7 19:19:58 10° S 19:23:50 85° W 19:27:46 10° N
Cosmos 1140 Rocket 3.5 19:20:35 10° SSW 19:25:42 88° WNW 19:30:54 10° NNE
Resurs 01 Rocket 1.8 19:21:51 10° SSE 19:26:04 47° ENE 19:30:19 10° N
Cosmos 1300 Rocket 3.6 19:22:44 10° S 19:27:09 87° W 19:31:37 10° N
DELTA 2 R/B (1) 3.7 19:21:56 10° WNW 19:27:32 72° SSW 19:31:31 20° ESE
Abrixas rocket 2.8 19:25:34 10° SSW 19:28:45 41° SE 19:29:39 33° E
ATLAS CENTAUR R/B 3.1 19:26:48 10° S 19:30:35 20° SE 19:30:46 20° SE
BREEZE-M DEB (TANK) 4.2 19:28:21 10° NW 19:31:29 37° NE 19:35:01 22° E
Cosmos 614 Rocket 3.8 19:28:20 10° SSW 19:33:25 82° ESE 19:38:30 10° NNE
ALOS 2.2 19:30:19 10° SSE 19:34:58 82° ENE 19:39:40 10° N
FREGAT/IRIS 3.9 19:33:52 10° S 19:36:49 43° W 19:39:47 10° NNW
Spot 2 Rocket 3.4 19:35:59 10° SSE 19:40:58 68° ENE 19:46:02 10° N
Helios 1A 3.5 19:40:55 34° E 19:41:16 35° ENE 19:45:03 10° N
Cosmos 1340 3.9 19:38:54 10° NNW 19:42:31 44° W 19:46:07 10° SSW
Resurs 1-3 3.5 19:39:27 10° SSE 19:43:46 63° ENE 19:48:07 10° N
Cosmos 2181 Rocket 4.2 19:37:59 10° N 19:44:13 74° W 19:50:32 10° S
Cosmos 2333 Rocket 3.3 19:41:25 10° N 19:46:04 25° NE 19:46:14 25° ENE
Cosmos 2208 Rocket 4.1 19:41:06 10° NNW 19:46:31 61° ENE 19:50:30 18° SSE
SL-16 R/B 4.5 19:42:37 10° NW 19:47:10 26° WSW 19:51:44 10° SSW
USA 229 DEB 4.1 19:44:43 10° NNW 19:51:34 47° NE 19:54:32 32° ESE
USA 229 4.1 19:44:49 10° NNW 19:51:40 47° NE 19:54:36 32° E
Cosmos 1850 Rocket 4.1 19:47:51 10° SSW 19:53:08 79° WNW 19:58:30 10° NNE
HJ-1C 4.4 19:51:53 10° S 19:55:08 47° W 19:58:25 10° NNW
Helios 1B rocket 2.5 19:51:11 10° NNE 19:55:16 54° E 19:59:19 10° S
Cosmos 2074 Rocket 3.9 19:50:58 10° S 19:57:12 81° E 20:03:30 10° N
Envisat 4.1 19:58:41 27° NE 19:58:41 27° NE 20:01:51 10° N
Tiangong 2 3.3 19:55:31 10° W 19:57:46 19° SW 19:58:32 17° SSW
Okean 2 4.1 19:55:18 10° N 19:58:13 37° NE 19:58:13 37° NE
Cosmos 2184 Rocket 3.9 19:53:55 10° S 20:00:15 83° E 20:06:32 10° N
Okean 1 Rocket 4.2 19:57:50 10° SSW 20:02:09 46° W 20:06:29 10° N
Genesis I 3.0 19:59:02 10° NNW 20:02:59 83° ENE 20:03:08 80° ESE
SAR-Lupe-4 3.7 20:04:46 63° N 20:04:46 63° N 20:07:50 10° NNW
Hubble Space Telescope 3.1 20:05:30 10° SSW 20:06:47 13° S 20:06:47 13° S
Meteor 1-5 Rocket 4.3 20:01:47 10° S 20:07:46 90° NE 20:13:42 10° N
FENGYUN 3A 4.4 20:02:34 10° S 20:07:50 53° W 20:13:08 10° NNW
BREEZE-M DEB (TANK) 2.7 20:13:38 10° NW 20:16:37 85° NNE 20:17:19 65° ESE
Gbstr 26 Del rocket 4.1 20:15:44 10° W 20:19:05 30° NNW 20:19:28 29° NNW
CZ-2D R/B 3.8 20:18:53 52° SW 20:19:19 57° W 20:23:06 10° NNW
Nadezhda 3 Rocket 4.0 20:15:42 10° N 20:21:26 54° ENE 20:21:26 54° ENE
GPS 2-04 Rocket1 3.6 20:17:37 10° WSW 20:21:01 45° SSW 20:21:01 45° SSW
Cosmos 1025 Rocket 3.6 20:19:01 10° NNW 20:23:18 56° W 20:25:45 24° SSW
H-2A R/B 4.3 20:21:38 13° SSW 20:24:33 34° W 20:27:58 10° NNW
Cosmos 2154 Rocket 3.9 20:22:55 10° S 20:29:13 73° E 20:35:33 10° N
Cosmos 2285 Rocket 3.9 20:24:14 10° NNW 20:30:43 88° WSW 20:32:47 47° SSE
Meteor 2-13 Rocket 4.4 20:28:24 10° S 20:34:27 79° W 20:40:34 10° N
COSMOS 2428 3.1 20:30:10 10° NNW 20:35:45 60° WSW 20:37:45 38° S
Cosmos 2333 4.4 20:31:23 10° NNW 20:37:05 68° WSW 20:38:23 52° SSW
Cosmos 2237 Rocket 3.2 20:34:18 10° N 20:37:45 33° NNE 20:37:45 33° NNE
NOSS 0 Rocket 4.1 20:47:25 10° NNW 20:52:28 62° NNW 20:52:28 62° NNW
Cosmos 2219 Rocket 2.7 20:50:55 10° NNW 20:55:22 56° NW 20:55:22 56° NW
Cosmos 2227 Rocket 4.5 20:54:58 10° SSW 20:55:24 12° SSW 20:55:24 12° SSW
SL-16 R/B 4.4 21:08:03 10° N 21:09:14 16° N 21:09:14 16° N
Cosmos 2333 Rocket 3.8 21:25:04 10° NW 21:28:17 31° NW 21:28:17 31° NW
